Temperature
14 15 15 15 14 12 13 15 17 18 18 19 20 19 19 18 19 19 18 18 18 17 17 16 16 16 16 16 16 16 16 16 16 16 17 17 17 16 16 16 16 16 16 17 17 16 16 16 16
14 14 15 14 12 12 13 15 17 18 19 19 19 19 18 18 18 17 17 17 18 18 17 16 16 16 16 16 16 16 16 16 16 16 17 17 17 17 16 17 17 17 17 17 17 17 16 16 16
13 14 14 12 12 13 14 16 17 18 19 19 18 18 18 18 17 17 17 17 18 17 17 16 16 16 16 16 16 16 16 17 17 17 17 17 17 17 17 17 17 17 17 17 17 17 16 16 16
13 13 13 12 13 14 15 17 18 18 18 18 18 17 18 18 17 18 17 17 17 17 16 16 16 16 16 16 16 16 16 17 17 17 17 17 17 17 17 17 17 17 17 17 17 17 17 16 16
12 13 12 12 13 14 15 17 18 18 18 18 18 17 17 18 18 18 17 17 18 17 16 16 16 16 16 16 16 16 17 17 17 17 17 18 18 18 18 18 18 17 17 17 17 17 17 16 16
12 11 11 12 13 15 16 18 18 18 18 17 17 17 17 17 17 17 17 17 17 17 16 15 15 16 16 16 16 16 17 17 17 17 18 18 18 18 18 18 18 18 17 17 17 17 17 16 16
11 10 11 12 13 14 16 18 18 17 17 17 17 16 16 16 17 17 17 17 17 16 16 15 15 16 16 16 16 16 17 17 17 17 17 18 18 18 18 18 18 18 17 17 17 17 17 16 16
11 10 11 12 13 14 17 18 18 18 17 18 18 16 16 17 17 17 17 16 16 16 16 15 15 16 16 16 16 17 17 17 17 17 17 17 17 18 18 17 17 17 17 17 17 17 17 16 16
11 10 11 12 13 14 16 17 18 18 18 17 18 18 17 17 16 16 16 16 16 16 16 15 15 15 16 16 16 16 16 17 17 17 17 17 17 17 17 17 17 17 17 17 17 17 16 16 16
10 10 11 13 13 14 15 16 16 17 16 16 17 17 17 17 16 16 16 16 16 16 16 15 15 15 16 16 16 16 16 16 17 17 17 17 17 17 17 17 17 17 17 17 17 16 16 16 16
10 10 12 13 14 14 14 15 16 16 15 16 16 17 17 17 16 16 16 17 16 16 16 15 15 15 16 16 16 16 16 16 16 16 17 17 17 17 17 17 17 17 16 16 16 16 16 16 15
9 10 12 12 13 13 13 14 14 15 16 17 17 17 17 17 17 16 16 16 16 16 16 16 15 15 16 16 16 16 16 16 16 16 16 16 16 16 16 16 16 16 16 16 16 16 15 15 15
9 10 11 12 12 13 13 13 13 14 15 16 17 17 17 17 17 17 16 16 16 16 16 16 16 16 16 16 16 16 16 16 16 16 16 16 16 16 16 16 16 16 16 15 15 15 15 15 15
9 10 11 11 11 12 12 13 13 14 15 16 16 16 17 17 16 16 16 16 16 16 16 16 16 15 15 16 16 16 16 15 15 15 15 15 15 15 15 15 15 15 15 15 15 14 14 14 14
10 10 10 11 11 11 12 12 12 13 14 15 15 16 16 16 16 16 16 16 16 16 16 16 16 15 15 15 15 15 15 15 15 15 15 15 15 15 15 15 15 15 15 14 14 14 14 14 14
9 9 9 10 11 11 11 11 12 13 13 14 14 15 15 16 16 16 16 16 16 16 16 16 16 15 15 15 15 15 15 15 15 14 14 14 14 14 14 14 14 14 14 14 14 14 14 14 13
8 8 9 10 11 11 11 11 12 12 12 12 13 14 15 15 16 16 16 16 16 16 16 16 16 15 15 15 15 15 15 15 14 14 14 14 14 14 14 14 14 14 14 14 14 14 13 13 13
7 8 9 9 10 10 10 10 11 11 12 12 13 13 14 15 15 16 16 16 16 16 16 16 16 15 15 15 15 14 14 14 14 14 14 14 14 14 14 14 14 14 14 13 13 13 13 13 13
8 8 9 9 10 10 10 10 11 11 11 12 12 13 14 15 15 15 16 16 16 15 15 15 15 15 15 15 15 15 14 14 14 14 14 14 14 14 14 14 14 14 13 13 13 13 13 13 13
8 8 9 9 10 10 10 10 10 11 11 12 12 13 14 14 15 15 16 16 16 16 16 15 15 15 15 15 15 15 15 15 14 14 14 14 14 14 14 14 14 14 13 13 13 13 13 13 12
8 8 8 9 10 10 10 10 10 11 11 12 13 13 14 15 15 15 16 16 16 16 16 16 16 16 16 15 15 14 14 14 14 14 14 14 14 14 14 14 14 14 13 13 13 13 12 12 12
8 9 9 9 9 9 10 9 9 10 11 11 12 13 14 15 16 16 16 16 16 16 16 16 16 16 16 15 15 15 15 15 15 15 14 14 14 14 14 14 13 13 13 13 13 12 12 12 12
8 9 9 9 9 9 9 9 9 10 10 11 12 13 15 15 16 16 16 16 16 16 16 16 16 16 16 15 15 15 15 15 15 14 14 14 14 14 14 14 13 13 13 13 12 12 12 12 11
9 8 8 8 8 8 9 9 9 10 11 11 12 13 14 15 16 16 16 16 16 16 16 16 16 16 15 15 15 15 15 15 14 14 14 14 14 14 13 13 13 13 13 12 12 12 11 11 11
8 7 7 8 8 8 9 9 9 11 11 12 12 14 15 15 15 15 16 16 16 16 16 16 15 15 15 15 15 15 15 14 14 14 14 14 14 14 13 13 13 12 12 12 11 11 11 10 10
8 8 7 8 8 8 9 9 10 11 12 13 14 14 14 15 15 15 15 15 16 15 15 15 15 15 15 15 14 14 14 14 14 14 14 13 13 13 13 12 12 12 12 11 11 10 10 10 9
8 8 8 7 7 8 8 9 10 12 11 11 12 13 14 14 15 15 15 15 15 15 15 15 15 14 14 14 14 14 14 14 13 13 13 13 13 12 12 12 11 11 11 10 10 10 9 9 8
8 8 7 7 8 8 9 9 9 11 11 11 10 12 13 14 14 14 14 15 15 14 14 14 14 14 14 13 13 13 13 13 13 12 12 12 12 12 11 11 11 10 10 10 9 9 8 8 8
8 8 8 7 7 7 8 8 10 10 10 10 10 12 13 13 14 14 14 14 14 14 14 13 13 13 13 13 12 12 12 12 12 12 11 11 11 11 11 10 10 10 9 9 8 8 8 7 7
8 8 7 7 7 6 6 8 10 9 9 10 10 11 12 13 13 13 13 13 13 13 13 13 12 12 12 12 11 11 11 11 11 11 10 10 10 10 10 9 9 9 8 8 7 7 7 6 6
Wind_Speed
9 7 1 3 4 2 6 6 5 4 2 1 1 2 2 2 2 2 4 13 18 17 21 23 22 20 19 18 17 17 17 17 17 17 18 18 19 19 19 20 19 19 19 18 18 17 16 15 14
6 3 2 3 5 5 6 7 7 7 4 0 3 2 3 2 3 5 7 15 19 18 20 21 22 21 19 18 17 17 17 17 17 17 17 18 19 19 18 18 18 18 18 17 17 15 14 13 12
4 1 2 4 6 8 7 7 9 6 4 2 1 2 2 2 3 4 9 18 17 16 19 21 23 21 19 19 18 18 18 17 17 17 17 18 18 18 17 18 17 17 16 16 15 14 13 12 11
1 1 1 4 9 9 7 6 7 6 3 3 3 0 1 2 1 7 16 17 16 12 18 22 22 20 19 19 18 18 18 17 17 18 17 17 18 17 17 17 16 16 15 14 13 12 11 10 10
1 2 5 7 10 7 7 6 6 7 6 5 6 4 0 5 7 17 16 17 16 12 17 21 22 20 19 18 18 18 18 17 17 17 17 17 17 16 16 15 15 14 13 13 11 10 9 8 8
1 2 6 10 11 8 6 7 6 5 5 5 6 6 2 1 8 13 14 15 14 13 16 19 21 20 19 18 18 18 18 17 17 17 17 17 16 16 15 14 13 13 12 11 10 8 7 6 5
4 5 7 9 9 8 8 5 8 8 6 7 7 8 4 3 5 10 12 14 13 14 13 15 18 18 18 18 17 18 18 17 17 16 16 16 15 14 14 12 12 11 10 9 8 6 5 3 3
4 4 7 7 9 9 7 4 5 8 7 5 6 9 8 8 8 10 13 13 14 12 11 12 14 15 15 15 16 17 17 17 16 17 17 16 15 13 12 11 10 9 8 7 6 4 2 1 1
2 5 9 9 9 7 4 3 3 3 6 4 4 5 8 13 14 13 14 12 12 13 11 11 11 13 14 14 15 16 17 17 16 16 16 15 13 12 11 11 10 9 8 6 5 4 3 2 3
4 7 9 5 5 3 2 2 1 3 4 3 4 6 10 14 15 16 16 16 14 14 13 11 10 11 13 12 13 14 13 14 14 14 14 13 12 12 10 11 10 9 7 6 5 5 4 5 6
5 7 4 2 1 0 1 2 2 4 4 5 9 13 12 13 15 15 15 15 14 13 12 11 10 12 11 10 11 11 11 12 12 14 14 12 11 10 9 9 8 8 7 6 6 6 6 6 7
4 5 5 3 3 1 1 3 3 1 3 3 9 14 13 13 15 16 15 14 13 13 12 12 11 11 11 11 10 10 10 9 10 12 13 11 8 7 8 8 8 8 7 7 7 6 7 8 9
5 3 4 3 3 2 2 2 2 4 3 2 7 11 13 13 11 12 13 13 13 13 13 13 12 11 11 10 9 10 10 10 11 12 13 13 9 6 7 7 8 9 9 8 7 7 7 7 7
3 3 3 3 3 2 2 3 2 4 3 1 6 8 10 11 10 10 12 12 13 14 14 12 13 11 10 8 7 8 11 11 12 11 13 14 12 9 7 6 6 7 9 9 8 7 5 4 4
2 1 2 4 4 2 1 4 5 4 3 2 3 5 8 9 10 11 12 13 13 13 13 13 13 11 10 9 8 9 10 11 10 10 12 12 12 10 8 5 4 6 7 7 6 5 3 2 2
2 3 3 4 5 3 4 7 6 1 1 3 3 3 4 7 8 9 9 9 10 11 12 12 12 11 10 7 7 7 9 10 9 10 10 10 11 10 8 4 3 5 4 3 2 1 1 2 2
2 4 5 3 5 4 5 5 5 1 0 3 4 4 3 4 5 6 8 9 10 11 12 11 11 12 10 8 6 6 7 7 8 9 8 8 9 9 7 4 3 4 2 2 1 1 2 2 3
5 5 4 5 5 5 6 5 4 1 2 4 5 5 4 5 6 6 7 8 8 9 10 11 11 10 9 7 4 4 4 4 6 7 8 8 7 8 6 4 2 2 1 1 1 2 2 2 3
3 5 5 4 5 5 7 6 6 4 4 6 6 6 6 7 6 5 6 7 8 8 9 10 10 10 9 6 6 5 5 4 3 4 7 8 7 7 6 3 2 2 2 1 1 1 2 2 1
2 4 3 3 5 5 5 6 7 6 7 8 9 9 9 7 6 6 6 7 9 11 11 11 11 11 10 7 6 4 4 3 3 3 5 7 7 7 5 4 2 2 1 1 0 0 1 1 0
3 5 4 4 4 2 4 3 6 7 8 9 10 10 10 11 10 9 8 9 9 10 11 11 11 11 10 9 5 4 3 3 2 3 3 3 6 7 6 5 3 2 2 1 1 0 1 1 1
2 4 5 6 6 2 5 3 6 8 10 12 13 12 13 12 11 10 10 9 10 10 9 9 10 9 9 9 9 9 7 6 6 5 4 4 6 7 7 6 5 3 2 2 1 1 0 1 2
2 1 3 5 4 2 2 2 6 5 9 14 15 15 15 13 12 12 12 12 10 8 8 8 8 8 8 9 10 10 7 5 4 5 6 4 4 6 7 6 5 3 2 2 2 1 1 0 1
2 4 5 4 3 2 5 5 6 6 11 11 14 14 13 12 11 11 11 9 7 5 6 7 8 7 7 8 8 9 9 8 8 7 7 5 4 3 5 6 5 4 3 2 2 1 1 0 1
4 4 3 2 1 4 4 5 8 9 10 12 12 12 11 10 9 9 9 8 8 8 7 7 8 7 6 7 7 8 9 10 10 9 8 7 4 3 3 3 4 3 3 3 2 1 1 0 0
3 4 5 4 4 2 3 6 7 7 5 5 6 7 7 7 7 8 9 9 8 8 8 7 7 6 6 6 6 6 7 6 6 7 7 7 5 4 4 4 4 4 3 3 2 1 0 1 0
4 2 3 4 2 1 3 5 6 3 2 2 3 3 3 4 5 6 7 7 8 8 8 8 8 7 6 7 7 6 6 6 6 6 6 5 5 5 5 5 4 4 3 2 2 1 1 1 1
2 4 3 3 3 2 2 3 4 4 2 1 3 3 2 2 2 4 5 6 6 6 5 6 6 7 6 6 7 6 6 6 7 7 7 6 6 5 6 5 4 3 3 2 2 1 1 1 1
2 2 2 2 2 4 2 5 4 5 4 3 2 2 2 3 3 2 3 4 4 5 5 6 6 6 6 7 6 7 6 6 7 6 7 6 5 6 6 5 4 4 3 2 2 1 1 2 2
3 3 4 3 2 2 2 5 6 1 1 4 3 2 2 3 2 1 2 2 3 5 5 6 6 7 7 7 7 7 7 7 7 7 6 7 6 5 5 5 4 3 3 2 2 2 2 2 2
Wind_Direction
311 330 44 65 87 122 225 225 218 224 212 214 18 84 94 122 184 188 110 134 135 144 148 147 144 140 135 132 130 128 122 118 114 111 109 107 106 103 102 102 101 100 99 98 97 97 97 95 92
314 335 67 93 146 185 231 218 213 218 194 117 5 44 56 55 68 97 122 139 139 143 145 146 143 139 137 135 134 131 125 122 118 115 112 110 108 106 105 104 103 102 101 100 100 99 97 94 88
305 228 147 141 175 195 213 207 205 219 215 162 27 357 57 50 62 103 140 141 137 140 144 146 142 140 139 138 136 133 128 125 123 120 116 113 111 110 109 107 106 105 104 103 102 100 96 90 83
331 88 134 183 210 212 206 198 179 183 196 181 160 300 4 357 307 130 137 138 135 134 142 146 142 141 140 140 138 135 132 129 127 125 121 118 116 114 113 111 109 108 107 105 104 101 95 86 77
84 158 192 213 223 226 222 221 186 179 177 182 169 170 274 351 100 127 136 139 138 136 142 145 143 143 142 142 141 139 136 134 131 130 126 124 121 120 118 117 115 113 111 110 108 105 98 88 77
154 169 196 211 221 231 231 214 186 188 187 188 172 156 181 51 114 132 138 140 140 141 144 146 145 144 145 145 143 141 140 138 135 134 131 129 128 126 124 123 122 121 119 116 114 110 103 91 75
179 179 203 206 216 230 229 206 174 178 188 188 166 150 161 153 132 135 140 140 141 143 142 143 144 145 146 146 145 144 143 140 138 138 137 135 134 132 131 130 130 128 126 125 124 121 115 99 68
190 181 204 203 204 222 225 205 182 173 182 170 161 158 169 168 138 138 139 141 144 144 142 140 141 143 144 145 146 145 145 144 144 142 142 141 141 140 140 140 141 141 140 141 144 146 147 136 341
179 199 208 200 197 215 224 209 206 170 138 140 160 166 162 146 138 140 141 143 149 151 148 145 144 144 146 147 148 147 147 148 148 149 150 148 149 150 153 157 158 159 162 166 174 189 218 261 291
184 208 214 202 188 199 220 191 250 137 142 130 117 113 135 142 147 150 155 157 159 161 159 156 153 153 153 153 150 149 151 154 155 159 160 160 162 166 171 175 179 181 186 195 209 226 248 267 281
194 210 222 249 216 132 339 336 342 145 167 172 161 152 151 153 155 160 161 161 163 164 165 164 161 161 161 154 157 159 160 165 167 170 172 172 176 181 182 184 193 200 207 220 239 251 257 262 270
220 237 225 262 320 5 5 346 1 333 220 199 167 158 159 165 167 166 164 166 165 165 171 170 166 167 167 163 168 168 169 175 181 186 185 182 183 185 186 191 200 207 214 226 243 251 258 263 265
237 245 228 250 308 317 336 333 351 297 311 138 150 160 167 173 174 167 164 166 167 171 175 174 169 171 171 170 175 177 181 185 190 192 196 191 183 186 192 201 207 214 219 224 235 245 254 259 260
230 212 234 223 224 291 273 300 335 276 328 135 161 174 179 178 175 171 165 170 174 178 176 172 173 174 172 174 177 179 185 189 190 193 194 191 184 182 184 194 203 213 218 222 225 231 239 250 255
241 194 242 226 191 212 127 270 251 276 312 204 199 197 190 183 178 180 177 175 176 176 174 173 175 176 177 176 177 177 178 179 181 187 188 184 182 179 177 180 193 212 218 219 223 236 241 260 269
165 155 189 210 176 174 164 228 241 276 326 241 235 230 205 197 189 185 179 177 177 173 173 174 175 174 181 183 177 174 175 173 177 180 178 178 179 176 169 169 190 209 206 200 204 227 251 270 279
147 165 177 183 174 153 180 232 247 166 2 275 257 247 228 219 208 196 183 177 179 179 172 172 172 173 178 183 177 173 169 166 169 169 170 174 174 173 166 170 191 195 180 186 206 214 218 257 277
168 156 166 176 169 162 192 238 267 234 243 268 264 254 244 224 220 209 192 183 181 182 174 173 170 174 173 172 166 162 155 161 162 165 168 168 168 168 161 160 174 164 156 206 226 237 240 243 262
151 145 156 179 160 163 196 226 249 254 259 264 267 259 250 243 236 225 203 185 177 179 179 179 175 176 171 172 177 175 178 175 167 163 165 163 160 159 149 141 135 126 154 201 231 236 258 269 273
168 141 152 154 165 161 189 226 232 237 241 245 246 246 245 250 252 232 216 194 186 185 186 186 186 181 180 180 180 178 167 165 165 149 144 152 150 148 144 135 134 122 137 123 75 141 218 264 236
204 178 175 156 161 161 143 247 231 239 241 246 241 239 238 229 225 223 215 208 195 193 192 190 188 183 181 171 155 135 120 112 141 155 146 144 144 137 130 127 120 108 123 132 98 86 179 261 284
202 215 184 156 143 172 163 224 242 216 229 236 235 232 234 233 221 217 213 210 204 200 194 191 185 181 177 168 167 169 176 185 189 170 157 139 130 124 120 115 111 105 109 112 91 77 145 207 255
190 209 151 149 137 118 161 181 272 214 222 230 230 228 228 226 218 213 213 211 208 197 187 184 178 178 176 177 180 179 180 178 149 138 145 138 118 115 115 113 109 104 98 94 78 68 53 179 221
128 71 62 62 87 192 196 181 265 223 214 221 224 225 226 221 217 216 214 205 197 182 174 170 169 175 174 174 176 178 173 164 155 158 160 151 132 110 109 110 107 101 96 87 75 65 64 43 242
103 105 101 92 161 239 194 191 247 244 229 220 218 218 223 218 207 206 199 192 188 180 174 170 166 168 169 169 174 176 172 168 170 169 167 159 152 148 143 122 117 107 102 91 75 63 31 348 275
151 143 154 164 187 257 184 222 256 272 265 226 206 203 206 205 197 195 192 189 186 180 171 168 168 167 162 160 163 162 160 159 162 163 159 161 160 153 145 130 121 111 104 92 76 71 18 41 7
136 167 162 124 128 159 245 272 308 328 6 71 119 133 171 193 190 191 184 180 182 181 179 175 169 167 164 157 146 141 145 144 145 141 135 136 136 135 131 124 120 111 102 94 95 90 64 88 74
134 140 101 122 152 196 266 273 261 284 287 95 110 119 123 122 148 163 174 177 181 182 173 166 167 168 163 154 149 144 140 136 134 132 132 132 130 126 130 128 125 117 101 86 90 93 105 108 87
126 126 130 137 159 162 200 269 258 248 234 158 129 122 124 122 137 162 176 178 171 165 166 170 170 162 159 154 142 136 135 133 131 132 135 135 131 133 134 133 129 122 107 98 108 128 125 121 102
181 181 155 156 218 174 166 273 307 296 144 123 115 97 82 82 85 124 152 153 167 179 182 183 179 173 167 155 145 142 139 138 137 137 140 136 132 130 131 131 132 131 122 119 137 151 137 135 124
Height
1517 1518 1520 1522 1526 1532 1532 1523 1516 1513 1513 1513 1514 1514 1515 1517 1519 1523 1519 1519 1524 1528 1532 1536 1539 1541 1542 1544 1545 1546 1547 1548 1549 1549 1550 1551 1552 1553 1554 1555 1556 1557 1557 1558 1558 1559 1559 1560 1560
1515 1517 1519 1520 1526 1534 1528 1516 1513 1510 1511 1512 1514 1514 1515 1515 1516 1517 1518 1522 1526 1529 1533 1536 1539 1541 1543 1544 1546 1547 1548 1549 1550 1551 1552 1552 1553 1554 1556 1557 1557 1558 1559 1560 1560 1561 1562 1562 1562
1513 1514 1517 1518 1523 1523 1519 1509 1508 1507 1509 1511 1515 1515 1516 1516 1517 1518 1519 1523 1527 1530 1534 1537 1539 1541 1543 1545 1546 1548 1549 1550 1551 1552 1553 1554 1555 1556 1557 1558 1559 1560 1561 1562 1562 1563 1564 1564 1564
1511 1513 1515 1517 1517 1511 1507 1504 1504 1507 1509 1511 1514 1517 1517 1517 1517 1519 1521 1524 1528 1531 1535 1538 1540 1542 1544 1545 1547 1549 1550 1551 1552 1554 1555 1556 1557 1558 1559 1560 1561 1562 1563 1564 1564 1565 1565 1566 1566
1509 1510 1513 1514 1511 1505 1502 1501 1502 1505 1508 1510 1513 1515 1516 1517 1518 1520 1523 1526 1529 1532 1536 1538 1541 1542 1544 1546 1548 1550 1551 1553 1554 1555 1556 1557 1558 1559 1561 1562 1563 1564 1565 1565 1566 1567 1567 1568 1568
1507 1507 1511 1511 1507 1501 1500 1500 1501 1503 1506 1509 1511 1514 1515 1517 1519 1522 1525 1528 1531 1533 1536 1539 1541 1543 1545 1547 1549 1550 1552 1554 1555 1556 1558 1559 1560 1561 1562 1564 1564 1565 1566 1567 1568 1568 1568 1569 1569
1504 1505 1505 1505 1504 1501 1498 1498 1499 1501 1503 1507 1508 1511 1514 1517 1519 1522 1526 1529 1532 1535 1537 1539 1542 1544 1546 1547 1549 1551 1553 1554 1556 1558 1559 1560 1561 1563 1564 1565 1566 1567 1567 1568 1569 1569 1569 1570 1570
1500 1502 1502 1502 1501 1499 1495 1496 1496 1498 1500 1503 1506 1507 1510 1515 1519 1523 1527 1531 1533 1536 1538 1540 1542 1544 1546 1548 1550 1552 1553 1555 1557 1558 1560 1561 1562 1564 1565 1566 1567 1568 1568 1569 1569 1570 1570 1570 1570
1498 1502 1499 1497 1497 1495 1493 1494 1495 1496 1497 1500 1502 1504 1507 1512 1517 1522 1526 1530 1534 1536 1538 1540 1542 1544 1546 1548 1550 1552 1554 1555 1557 1559 1560 1562 1563 1564 1565 1566 1567 1568 1569 1569 1569 1570 1570 1570 1570
1496 1497 1493 1491 1491 1492 1493 1493 1495 1495 1496 1498 1500 1503 1507 1510 1514 1518 1523 1528 1532 1535 1538 1540 1542 1544 1546 1548 1550 1552 1554 1555 1557 1559 1560 1562 1563 1564 1565 1566 1567 1568 1568 1569 1569 1569 1570 1570 1570
1493 1492 1489 1490 1490 1492 1493 1494 1494 1494 1496 1496 1498 1500 1505 1508 1512 1516 1520 1525 1530 1534 1537 1539 1542 1544 1546 1548 1549 1551 1553 1555 1557 1558 1560 1561 1562 1564 1565 1566 1566 1567 1568 1568 1568 1569 1569 1569 1569
1491 1489 1489 1489 1490 1492 1494 1495 1495 1494 1495 1496 1497 1499 1503 1507 1509 1513 1518 1523 1527 1532 1536 1538 1541 1543 1545 1547 1549 1551 1553 1554 1556 1558 1559 1560 1561 1563 1564 1565 1566 1566 1567 1567 1568 1568 1568 1568 1567
1489 1488 1488 1490 1491 1493 1494 1495 1496 1495 1495 1495 1497 1499 1502 1505 1509 1512 1516 1520 1525 1529 1533 1537 1539 1542 1544 1546 1548 1550 1552 1554 1555 1557 1558 1559 1560 1561 1562 1563 1564 1565 1565 1566 1566 1566 1566 1566 1566
1488 1488 1489 1491 1493 1494 1495 1495 1496 1495 1495 1496 1498 1500 1502 1505 1508 1511 1514 1518 1522 1527 1530 1534 1537 1540 1542 1544 1547 1549 1551 1553 1554 1555 1557 1558 1559 1560 1561 1562 1563 1563 1564 1564 1565 1565 1564 1564 1564
1488 1489 1490 1490 1492 1495 1497 1498 1496 1496 1496 1497 1499 1500 1502 1504 1507 1510 1512 1516 1520 1524 1528 1531 1535 1538 1540 1543 1545 1547 1549 1551 1553 1554 1556 1557 1558 1559 1560 1561 1561 1562 1562 1562 1563 1563 1563 1562 1562
1488 1492 1494 1491 1492 1494 1500 1499 1495 1496 1497 1498 1499 1500 1502 1504 1505 1508 1511 1514 1518 1522 1525 1529 1532 1535 1538 1541 1543 1545 1547 1549 1551 1553 1554 1555 1556 1557 1558 1559 1559 1560 1560 1560 1560 1560 1560 1560 1559
1490 1493 1494 1493 1491 1493 1498 1497 1495 1497 1498 1498 1499 1500 1501 1503 1505 1507 1510 1513 1516 1519 1523 1526 1529 1532 1535 1539 1541 1543 1545 1547 1549 1551 1552 1553 1554 1555 1556 1557 1557 1558 1558 1558 1558 1558 1557 1557 1556
1493 1492 1492 1493 1492 1495 1498 1498 1495 1496 1498 1499 1499 1500 1501 1502 1504 1506 1508 1511 1514 1517 1520 1523 1526 1529 1533 1536 1538 1541 1543 1545 1547 1548 1550 1551 1552 1553 1554 1554 1555 1555 1555 1555 1555 1555 1554 1554 1553
1489 1490 1492 1492 1491 1495 1497 1498 1497 1496 1497 1498 1499 1499 1500 1501 1502 1505 1507 1509 1512 1515 1518 1520 1523 1526 1529 1532 1534 1536 1539 1542 1544 1546 1547 1549 1550 1550 1551 1551 1552 1552 1552 1552 1552 1551 1551 1550 1549
1488 1491 1492 1491 1490 1494 1497 1497 1496 1496 1496 1496 1498 1498 1498 1499 1500 1502 1505 1507 1509 1511 1514 1517 1520 1523 1526 1528 1531 1534 1536 1539 1541 1543 1544 1545 1547 1548 1548 1549 1549 1549 1549 1549 1549 1548 1547 1546 1546
1488 1490 1491 1491 1492 1493 1496 1499 1496 1493 1493 1493 1494 1494 1496 1497 1498 1499 1501 1504 1506 1509 1511 1513 1516 1519 1522 1525 1528 1531 1533 1535 1537 1539 1540 1542 1544 1545 1545 1546 1546 1546 1545 1545 1545 1544 1543 1542 1542
1489 1487 1487 1489 1495 1498 1497 1503 1495 1491 1491 1490 1489 1490 1491 1492 1494 1496 1498 1501 1503 1506 1508 1511 1514 1516 1519 1521 1524 1526 1528 1530 1532 1535 1537 1538 1540 1541 1542 1542 1542 1542 1541 1541 1540 1540 1539 1538 1537
1487 1486 1487 1490 1494 1499 1498 1502 1495 1488 1489 1486 1484 1484 1485 1487 1490 1492 1495 1497 1500 1503 1505 1508 1510 1512 1515 1518 1520 1523 1525 1528 1530 1532 1533 1535 1536 1537 1537 1538 1538 1538 1537 1536 1536 1535 1534 1533 1532
1486 1488 1491 1494 1497 1503 1498 1502 1496 1486 1480 1478 1477 1478 1479 1482 1485 1488 1491 1494 1497 1499 1502 1504 1506 1509 1512 1514 1517 1519 1521 1524 1526 1528 1529 1531 1532 1533 1533 1533 1533 1533 1533 1532 1531 1530 1530 1529 1528
1488 1494 1500 1502 1503 1503 1495 1497 1491 1476 1472 1471 1472 1473 1475 1478 1481 1484 1487 1490 1492 1495 1498 1500 1503 1505 1508 1510 1513 1515 1517 1519 1522 1524 1525 1527 1528 1529 1529 1530 1529 1529 1528 1527 1527 1526 1525 1524 1523
1490 1493 1500 1502 1503 1502 1495 1495 1483 1471 1468 1467 1469 1470 1473 1475 1477 1480 1483 1486 1489 1492 1494 1497 1499 1502 1504 1506 1509 1511 1513 1516 1518 1520 1521 1523 1524 1525 1525 1525 1525 1524 1524 1523 1522 1521 1520 1519 1518
1489 1492 1492 1498 1500 1502 1497 1488 1478 1470 1469 1468 1469 1470 1471 1473 1475 1478 1481 1483 1486 1489 1491 1494 1496 1498 1500 1502 1505 1507 1509 1512 1514 1516 1517 1518 1520 1521 1521 1521 1520 1520 1519 1518 1517 1516 1515 1514 1513
1488 1490 1495 1499 1500 1501 1495 1490 1487 1476 1474 1471 1471 1471 1472 1473 1475 1477 1479 1481 1484 1487 1489 1491 1493 1495 1497 1499 1501 1503 1506 1508 1510 1512 1513 1514 1516 1516 1516 1516 1516 1515 1515 1514 1513 1512 1510 1510 1509
1490 1491 1492 1497 1499 1502 1499 1495 1479 1476 1474 1473 1473 1473 1473 1474 1475 1476 1478 1480 1482 1484 1486 1489 1490 1492 1493 1495 1497 1499 1502 1504 1506 1508 1509 1510 1511 1512 1512 1512 1512 1511 1510 1509 1509 1507 1506 1505 1505
1488 1489 1492 1498 1499 1501 1502 1496 1475 1474 1473 1473 1473 1474 1474 1475 1476 1477 1478 1479 1480 1482 1484 1485 1487 1488 1490 1492 1494 1496 1498 1500 1502 1504 1505 1507 1508 1508 1508 1508 1507 1507 1506 1505 1504 1503 1502 1501 1501